�������l�o���
Date,Time,MP-1(��Sv/h),MP-2(��Sv/h),MP-3(��Sv/h),MP-4(��Sv/h),MP-5(��Sv/h),MP-6(��Sv/h),MP-7(��Sv/h),MP-8(��Sv/h),����,����(m/s),���J
2017/11/29,00:00,0.906,1.473,0.937,1.761,1.202,0.499,0.891,0.847,��,2.5,��
2017/11/29,00:10,0.904,1.473,0.939,1.760,1.200,0.498,0.889,0.847,��,2.9,��
2017/11/29,00:20,0.904,1.473,0.938,1.759,1.204,0.498,0.892,0.849,��쓌,2.0,��
2017/11/29,00:30,0.904,1.473,0.936,1.760,1.202,0.498,0.892,0.848,��,2.2,��
2017/11/29,00:40,0.906,1.472,0.937,1.760,1.202,0.498,0.890,0.849,�쓌,2.0,��
2017/11/29,00:50,0.905,1.472,0.937,1.760,1.202,0.496,0.891,0.849,�쓌,1.9,��
2017/11/29,01:00,0.904,1.468,0.939,1.758,1.201,0.497,0.891,0.846,�쓌,0.9,��
2017/11/29,01:10,0.904,1.474,0.937,1.759,1.202,0.497,0.891,0.847,-,CALM,��
2017/11/29,01:20,0.904,1.474,0.940,1.758,1.202,0.497,0.891,0.846,�k��,0.8,��
2017/11/29,01:30,0.905,1.472,0.938,1.760,1.202,0.498,0.892,0.849,�k�k��,1.2,��
2017/11/29,01:40,0.905,1.472,0.938,1.759,1.201,0.497,0.892,0.848,�k�k��,1.9,��
2017/11/29,01:50,0.902,1.475,0.936,1.761,1.201,0.497,0.891,0.850,�k�k��,1.5,��
2017/11/29,02:00,0.905,1.473,0.936,1.760,1.201,0.497,0.889,0.847,�k��,1.5,��
2017/11/29,02:10,0.907,1.474,0.936,1.761,1.199,0.498,0.891,0.847,�k�k��,1.2,��
2017/11/29,02:20,0.903,1.472,0.937,1.760,1.201,0.497,0.890,0.845,���k��,0.9,��
2017/11/29,02:30,0.902,1.474,0.938,1.762,1.204,0.498,0.889,0.849,-,CALM,��
2017/11/29,02:40,0.905,1.473,0.938,1.760,1.201,0.497,0.890,0.847,���쓌,0.6,��
2017/11/29,02:50,0.904,1.474,0.937,1.759,1.201,0.499,0.890,0.846,���k��,0.6,��
2017/11/29,03:00,0.904,1.472,0.936,1.759,1.203,0.498,0.890,0.847,��,0.9,��
2017/11/29,03:10,0.903,1.473,0.936,1.760,1.202,0.497,0.888,0.848,��쓌,1.5,��
2017/11/29,03:20,0.904,1.473,0.936,1.760,1.201,0.497,0.888,0.847,���k��,0.6,��
2017/11/29,03:30,0.902,1.472,0.937,1.758,1.201,0.498,0.889,0.846,�k,1.4,��
2017/11/29,03:40,0.905,1.472,0.937,1.759,1.201,0.498,0.888,0.846,�k,1.2,��
2017/11/29,03:50,0.904,1.472,0.936,1.759,1.203,0.498,0.890,0.847,�k��,0.9,��
2017/11/29,04:00,0.904,1.473,0.938,1.761,1.201,0.497,0.890,0.848,�k��,1.2,��
2017/11/29,04:10,0.902,1.472,0.936,1.759,1.201,0.499,0.889,0.846,�k��,1.4,��
2017/11/29,04:20,0.903,1.470,0.936,1.759,1.204,0.497,0.889,0.848,���k��,2.0,��
2017/11/29,04:30,0.904,1.471,0.937,1.757,1.202,0.498,0.889,0.847,���k��,1.2,��
2017/11/29,04:40,0.902,1.471,0.937,1.760,1.200,0.497,0.890,0.848,���k��,2.8,��
2017/11/29,04:50,0.902,1.471,0.938,1.759,1.201,0.497,0.889,0.848,��,1.5,��
2017/11/29,05:00,0.903,1.469,0.937,1.760,1.203,0.498,0.888,0.848,�k�k��,1.5,��
2017/11/29,05:10,0.905,1.470,0.937,1.761,1.202,0.498,0.892,0.849,�k��,1.9,��
2017/11/29,05:20,0.902,1.470,0.938,1.760,1.201,0.497,0.891,0.849,�k��,1.2,��
2017/11/29,05:30,0.905,1.473,0.937,1.756,1.201,0.496,0.891,0.848,-,CALM,��
2017/11/29,05:40,0.904,1.468,0.938,1.760,1.197,0.497,0.892,0.847,��쐼,0.6,��
2017/11/29,05:50,0.904,1.470,0.937,1.758,1.201,0.497,0.891,0.847,��,1.2,��
2017/11/29,06:00,0.903,1.471,0.937,1.760,1.199,0.499,0.891,0.848,�쐼,0.8,��
2017/11/29,06:10,0.903,1.471,0.935,1.762,1.201,0.499,0.890,0.849,���쐼,0.9,��
2017/11/29,06:20,0.902,1.471,0.937,1.760,1.200,0.497,0.890,0.848,��,1.7,��
2017/11/29,06:30,0.904,1.472,0.939,1.759,1.201,0.498,0.891,0.847,���쐼,3.3,��
2017/11/29,06:40,0.903,1.469,0.939,1.759,1.201,0.499,0.890,0.845,���쐼,8.1,��
2017/11/29,06:50,0.904,1.467,0.939,1.759,1.200,0.497,0.889,0.848,���쐼,8.5,��
2017/11/29,07:00,0.907,1.472,0.936,1.760,1.198,0.497,0.890,0.846,��,7.4,��
2017/11/29,07:10,0.905,1.470,0.936,1.757,1.198,0.499,0.891,0.847,��,7.1,��
2017/11/29,07:20,0.905,1.470,0.939,1.759,1.200,0.500,0.891,0.846,��,7.8,��
2017/11/29,07:30,0.906,1.470,0.940,1.760,1.201,0.499,0.892,0.849,��,7.8,��
2017/11/29,07:40,0.907,1.471,0.940,1.759,1.199,0.498,0.893,0.848,��,7.3,��
2017/11/29,07:50,0.908,1.473,0.940,1.759,1.199,0.500,0.893,0.848,���쐼,6.2,��
2017/11/29,08:00,0.910,1.472,0.940,1.758,1.202,0.500,0.892,0.848,��,6.9,��
2017/11/29,08:10,0.909,1.473,0.940,1.766,1.201,0.500,0.892,0.852,��,5.8,��
2017/11/29,08:20,0.909,1.474,0.941,1.761,1.202,0.499,0.895,0.849,���k��,4.3,��
2017/11/29,08:30,0.910,1.475,0.941,1.766,1.202,0.499,0.893,0.849,�쐼,1.2,��
2017/11/29,08:40,0.909,1.475,0.940,1.765,1.202,0.500,0.893,0.849,��,4.7,��
2017/11/29,08:50,0.907,1.474,0.940,1.766,1.202,0.499,0.893,0.848,��쓌,4.3,��
2017/11/29,09:00,0.910,1.475,0.941,1.765,1.204,0.499,0.893,0.849,��쓌,4.5,��
2017/11/29,09:10,0.909,1.472,0.940,1.764,1.204,0.500,0.894,0.850,��,3.7,��
2017/11/29,09:20,0.910,1.475,0.942,1.767,1.204,0.501,0.893,0.849,��,2.8,��
2017/11/29,09:30,0.911,1.473,0.942,1.763,1.204,0.502,0.892,0.848,��,3.8,��
2017/11/29,09:40,0.910,1.471,0.940,1.766,1.205,0.501,0.892,0.850,��쐼,4.4,��
2017/11/29,09:50,0.910,1.471,0.942,1.768,1.205,0.501,0.893,0.850,��쐼,2.6,��
2017/11/29,10:00,0.910,1.473,0.942,1.763,1.207,0.502,0.893,0.850,��쐼,2.3,��
2017/11/29,10:10,0.910,1.472,0.942,1.766,1.206,0.500,0.892,0.850,��쓌,3.1,��
2017/11/29,10:20,0.908,1.472,0.943,1.764,1.205,0.499,0.891,0.850,��,4.2,��
2017/11/29,10:30,0.911,1.473,0.945,1.768,1.208,0.499,0.890,0.851,��,3.9,��
2017/11/29,10:40,0.909,1.472,0.945,1.766,1.208,0.499,0.887,0.851,��,4.9,��
2017/11/29,10:50,0.901,1.473,0.944,1.767,1.206,0.498,-,0.852,��,4.9,��
2017/11/29,11:00,0.908,1.473,0.945,1.770,1.206,0.499,0.890,0.850,��쐼,3.7,��
2017/11/29,11:10,0.910,1.474,0.947,1.768,1.205,0.499,0.892,0.851,��,4.0,��
2017/11/29,11:20,0.908,1.472,0.943,1.768,1.207,0.500,0.891,0.853,��,2.9,��
2017/11/29,11:30,0.909,1.474,0.945,1.767,1.206,0.501,0.890,0.850,��쐼,2.2,��
2017/11/29,11:40,0.911,1.476,0.946,1.767,1.204,0.499,-,0.850,��,2.3,��
2017/11/29,11:50,0.910,1.474,0.945,1.769,1.206,0.499,0.890,0.850,��쓌,2.3,��
2017/11/29,12:00,0.912,1.475,0.944,1.768,1.207,0.499,0.892,0.851,��,2.8,��
2017/11/29,12:10,0.912,1.477,0.945,1.766,1.206,0.502,0.893,0.850,��,3.8,��
2017/11/29,12:20,0.910,1.480,0.945,1.766,1.206,0.500,0.891,0.850,�쐼,3.0,��
2017/11/29,12:30,0.914,1.484,0.946,1.767,1.207,0.501,0.894,0.851,��,3.3,��
2017/11/29,12:40,0.913,1.483,0.947,1.769,1.205,0.500,0.895,0.850,��,4.9,��
2017/11/29,12:50,0.915,1.480,0.945,1.771,1.205,0.500,0.893,0.850,��,7.6,��
2017/11/29,13:00,0.917,1.483,0.950,1.771,1.208,0.503,0.895,0.852,��,6.4,��
2017/11/29,13:10,0.912,1.475,0.947,1.769,1.208,0.502,0.898,0.853,��,7.3,��
2017/11/29,13:20,0.912,1.480,0.945,1.772,1.208,0.501,0.895,0.850,���쐼,7.0,��
2017/11/29,13:30,0.913,1.479,0.947,1.774,1.208,0.501,0.896,0.852,���쐼,6.2,��
2017/11/29,13:40,0.912,1.476,0.943,1.773,1.207,0.503,0.895,0.850,��,8.5,��
2017/11/29,13:50,0.912,1.477,0.943,1.772,1.208,0.500,0.895,0.851,��,8.8,��
2017/11/29,14:00,0.912,1.476,0.945,1.774,1.205,0.501,0.896,0.848,��,8.2,��
2017/11/29,14:10,0.910,1.477,0.943,1.773,1.208,0.500,0.894,0.849,��,8.8,��
2017/11/29,14:20,0.910,1.476,0.943,1.771,1.207,0.500,0.892,0.849,��,9.6,��
2017/11/29,14:30,-,1.476,0.945,1.773,1.207,0.500,0.895,0.848,��,9.8,��
2017/11/29,14:40,-,1.475,0.943,1.773,1.206,0.500,0.894,0.848,��,6.8,��
2017/11/29,14:50,0.904,1.477,0.944,1.773,1.208,0.500,0.894,0.847,��,7.8,��
2017/11/29,15:00,0.909,1.475,0.944,1.774,1.210,0.499,0.896,0.849,��,7.5,��
2017/11/29,15:10,0.907,1.473,0.943,1.775,1.210,0.501,0.894,0.848,��,6.9,��
2017/11/29,15:20,0.905,1.475,0.944,1.773,1.207,0.501,0.896,0.850,��,7.1,��
2017/11/29,15:30,-,1.479,0.945,1.775,1.207,0.500,0.895,0.848,��,7.6,��
2017/11/29,15:40,-,1.479,0.942,1.772,1.207,0.501,0.896,0.850,���k��,4.6,��
2017/11/29,15:50,0.904,1.482,0.943,1.775,1.207,0.501,0.893,0.851,��,6.3,��
2017/11/29,16:00,0.908,1.481,0.941,1.774,1.205,0.502,0.895,0.848,��,6.5,��
2017/11/29,16:10,0.908,1.482,0.946,1.774,1.205,0.503,0.893,0.850,��,7.2,��
2017/11/29,16:20,0.906,1.486,0.946,1.772,1.208,0.500,0.893,0.851,��,7.2,��
2017/11/29,16:30,0.906,1.483,0.947,1.770,1.207,0.504,0.895,0.850,��,7.2,��
2017/11/29,16:40,0.909,1.481,0.947,1.772,1.205,0.504,0.896,0.851,��,8.0,��
2017/11/29,16:50,0.908,1.483,0.946,1.774,1.207,0.502,0.895,0.851,��,7.9,��
2017/11/29,17:00,0.909,1.486,0.945,1.775,1.207,0.503,0.894,0.853,��,6.7,��
2017/11/29,17:10,0.909,1.482,0.947,1.772,1.207,0.502,0.895,0.850,��,6.7,��
2017/11/29,17:20,0.908,1.485,0.946,1.774,1.207,0.502,0.897,0.851,���k��,5.1,��
2017/11/29,17:30,0.909,1.483,0.944,1.773,1.209,0.502,0.895,0.852,���k��,5.7,��
2017/11/29,17:40,0.910,1.485,0.945,1.770,1.206,0.502,0.897,0.851,��,6.0,��
2017/11/29,17:50,0.908,1.484,0.944,1.773,1.208,0.502,0.895,0.851,��,4.8,��
2017/11/29,18:00,0.909,1.484,0.946,1.773,1.211,0.501,0.897,0.851,���k��,3.3,��
2017/11/29,18:10,0.909,1.482,0.946,1.773,1.208,0.502,0.897,0.851,�k��,2.3,��
2017/11/29,18:20,0.910,1.485,0.946,1.773,1.209,0.501,0.896,0.853,�k��,5.4,��
2017/11/29,18:30,0.910,1.480,0.947,1.772,1.211,0.501,0.897,0.851,�k��,5.6,��
2017/11/29,18:40,0.911,1.484,0.948,1.772,1.208,0.503,0.897,0.852,���k��,2.8,��
2017/11/29,18:50,0.912,1.482,0.945,1.772,1.212,0.502,0.896,0.851,���k��,5.6,��
2017/11/29,19:00,0.910,1.482,0.945,1.771,1.209,0.501,0.897,0.852,��,5.8,��
2017/11/29,19:10,0.910,1.482,0.947,1.775,1.206,0.502,0.895,0.852,��,6.0,��
2017/11/29,19:20,0.912,1.484,0.946,1.773,1.210,0.502,0.897,0.852,��,5.6,��
2017/11/29,19:30,0.909,1.484,0.948,1.774,1.211,0.500,0.897,0.851,���k��,7.4,��
2017/11/29,19:40,0.908,1.481,0.947,1.774,1.209,0.502,0.897,0.851,��,8.2,��
2017/11/29,19:50,0.906,1.483,0.945,1.775,1.208,0.501,0.896,0.852,���k��,7.0,��
2017/11/29,20:00,0.909,1.480,0.948,1.770,1.208,0.502,0.896,0.851,���k��,6.4,��
2017/11/29,20:10,0.909,1.481,0.947,1.771,1.209,0.500,0.896,0.851,�k��,5.5,��
2017/11/29,20:20,0.910,1.482,0.945,1.771,1.206,0.501,0.895,0.851,�k��,4.6,��
2017/11/29,20:30,0.907,1.481,0.947,1.773,1.207,0.501,0.896,0.851,�k��,4.7,��
2017/11/29,20:40,0.911,1.481,0.943,1.773,1.209,0.502,0.896,0.849,�k��,3.8,��
2017/11/29,20:50,0.908,1.483,0.945,1.772,1.206,0.501,0.895,0.850,�k��,1.7,��
2017/11/29,21:00,0.911,1.480,0.945,1.771,1.210,0.502,0.897,0.850,�k��,1.7,��
2017/11/29,21:10,0.911,1.483,0.947,1.771,1.209,0.501,0.895,0.852,�k,2.2,��
2017/11/29,21:20,0.910,1.483,0.944,1.771,1.210,0.499,0.897,0.850,�k,2.0,��
2017/11/29,21:30,0.908,1.483,0.943,1.773,1.207,0.500,0.896,0.851,�k�k��,2.9,��
2017/11/29,21:40,0.908,1.483,0.945,1.773,1.208,0.500,0.896,0.849,�k�k��,2.6,��
2017/11/29,21:50,0.908,1.482,0.944,1.771,1.209,0.501,0.896,0.850,�k�k��,4.5,��
2017/11/29,22:00,0.908,1.483,0.945,1.771,1.210,0.500,0.894,0.851,�k�k��,4.1,��
2017/11/29,22:10,0.908,1.483,0.945,1.770,1.208,0.501,0.896,0.849,�k��,4.4,��
2017/11/29,22:20,0.907,1.480,0.945,1.771,1.209,0.500,0.896,0.852,�k��,5.3,��
2017/11/29,22:30,0.907,1.481,0.944,1.769,1.207,0.501,0.896,0.850,�k��,6.2,��
2017/11/29,22:40,0.908,1.483,0.946,1.770,1.210,0.501,0.896,0.850,�k��,6.1,��
2017/11/29,22:50,0.908,1.482,0.944,1.771,1.210,0.500,0.895,0.851,���k��,7.0,��
2017/11/29,23:00,0.908,1.484,0.944,1.775,1.207,0.501,0.896,0.851,���k��,8.3,��
2017/11/29,23:10,0.906,1.482,0.946,1.772,1.210,0.501,0.896,0.851,�k��,9.0,��
2017/11/29,23:20,0.909,1.481,0.945,1.774,1.208,0.500,0.895,0.850,�k��,7.5,��
2017/11/29,23:30,0.907,1.483,0.943,1.772,1.210,0.500,0.894,0.852,�k��,8.8,��
2017/11/29,23:40,0.905,1.483,0.945,1.774,1.209,0.501,0.895,0.849,�k��,8.9,��
2017/11/29,23:50,0.908,1.484,0.944,1.772,1.209,0.499,0.893,0.850,�k�k��,7.4,��
